LNR1025 DTTA-HLLB

Flight info

Callsign LNR1025
Flight time 1h 59m
Altitude 37000
Route DIDON2C DIDON UM978 SONAK DCT DINUX DCT OBITA DCT BAGTU DCT ELIMO P573 BNA
Aircraft A320/M-SDE3FGHIRWY/LB1

Departure

Time 2026-04-29 15:08
Airport Tunis Carthage International Airport (DTTA)

Arrival

Time 2026-04-29 17:08
Airport Benina International Airport (HLLB)
Time Latitude Longitude Altitude Speed Heading
2026-04-29 14:49 36.84561 10.22009 25 ft 0 kts 290°
2026-04-29 14:52 36.84560 10.22009 25 ft 0 kts 290°
2026-04-29 15:01 36.84556 10.22024 26 ft 3 kts 283°
2026-04-29 15:01 36.84554 10.22052 25 ft 3 kts 257°
2026-04-29 15:01 36.84563 10.22077 25 ft 3 kts 221°
2026-04-29 15:01 36.84582 10.22091 26 ft 3 kts 195°
2026-04-29 15:02 36.84589 10.22094 25 ft 1 kts 193°
2026-04-29 15:03 36.84587 10.22093 25 ft 3 kts 193°
2026-04-29 15:04 36.84541 10.22084 25 ft 8 kts 180°
2026-04-29 15:04 36.84506 10.22132 24 ft 9 kts 104°
2026-04-29 15:04 36.84492 10.22209 24 ft 10 kts 102°
2026-04-29 15:04 36.84524 10.22263 24 ft 8 kts 15°
2026-04-29 15:05 36.84575 10.22277 24 ft 7 kts 12°
2026-04-29 15:05 36.84642 10.22298 27 ft 18 kts 14°
2026-04-29 15:05 36.84770 10.22330 25 ft 18 kts 11°
2026-04-29 15:05 36.84897 10.22364 26 ft 19 kts 13°
2026-04-29 15:06 36.85015 10.22339 27 ft 18 kts 297°
2026-04-29 15:06 36.85060 10.22203 27 ft 16 kts 293°
2026-04-29 15:06 36.85104 10.22073 27 ft 18 kts 292°
2026-04-29 15:06 36.85151 10.21932 28 ft 17 kts 292°
2026-04-29 15:07 36.85198 10.21792 28 ft 21 kts 293°
2026-04-29 15:07 36.85307 10.21721 29 ft 20 kts 19°
2026-04-29 15:07 36.85402 10.21830 29 ft 20 kts 92°
2026-04-29 15:07 36.85389 10.21881 29 ft 0 kts 111°
2026-04-29 15:08 36.85313 10.22112 27 ft 67 kts 112°
2026-04-29 15:08 36.85052 10.22897 28 ft 126 kts 112°
2026-04-29 15:08 36.84656 10.24094 158 ft 161 kts 112°
2026-04-29 15:08 36.84231 10.25388 883 ft 161 kts 112°
2026-04-29 15:09 36.83709 10.26646 1687 ft 164 kts 118°
2026-04-29 15:09 36.83138 10.27932 2199 ft 178 kts 119°
2026-04-29 15:09 36.82510 10.29368 2510 ft 200 kts 119°
2026-04-29 15:09 36.81802 10.30992 2872 ft 226 kts 119°
2026-04-29 15:10 36.81013 10.32798 3404 ft 246 kts 120°
2026-04-29 15:10 36.80181 10.34711 4222 ft 254 kts 120°
2026-04-29 15:10 36.79338 10.36648 5044 ft 261 kts 120°
2026-04-29 15:10 36.78515 10.38737 5865 ft 269 kts 109°
2026-04-29 15:11 36.78288 10.41055 6613 ft 280 kts 85°
2026-04-29 15:11 36.78752 10.43440 7405 ft 286 kts 74°
2026-04-29 15:11 36.79097 10.45894 8191 ft 290 kts 92°
2026-04-29 15:11 36.78827 10.48396 8976 ft 293 kts 101°
2026-04-29 15:12 36.78465 10.50933 9734 ft 298 kts 101°
2026-04-29 15:12 36.78215 10.52632 10192 ft 304 kts 101°
2026-04-29 15:12 36.77674 10.56282 10583 ft 335 kts 101°
2026-04-29 15:12 36.77245 10.59184 11158 ft 345 kts 101°
2026-04-29 15:13 36.76811 10.62124 11874 ft 352 kts 101°
2026-04-29 15:13 36.76365 10.65154 12610 ft 357 kts 100°
2026-04-29 15:13 36.75915 10.68224 13333 ft 362 kts 100°
2026-04-29 15:13 36.75459 10.71330 14036 ft 366 kts 101°
2026-04-29 15:14 36.74995 10.74474 14697 ft 371 kts 101°
2026-04-29 15:14 36.74524 10.77656 15347 ft 376 kts 101°
2026-04-29 15:14 36.74046 10.80881 15996 ft 380 kts 101°
2026-04-29 15:14 36.73560 10.84150 16626 ft 384 kts 101°
2026-04-29 15:15 36.73076 10.87399 17213 ft 388 kts 101°
2026-04-29 15:15 36.72578 10.90732 17806 ft 393 kts 101°
2026-04-29 15:15 36.72076 10.94092 18399 ft 397 kts 101°
2026-04-29 15:15 36.71565 10.97495 18986 ft 401 kts 101°
2026-04-29 15:16 36.71051 11.00924 19536 ft 404 kts 101°
2026-04-29 15:16 36.70525 11.04377 20099 ft 408 kts 102°
2026-04-29 15:16 36.69937 11.07845 20646 ft 410 kts 103°
2026-04-29 15:16 36.69292 11.11329 21174 ft 414 kts 104°
2026-04-29 15:17 36.68619 11.14828 21689 ft 417 kts 104°
2026-04-29 15:17 36.67937 11.18346 22178 ft 420 kts 104°
2026-04-29 15:17 36.67256 11.21896 22684 ft 422 kts 104°
2026-04-29 15:17 36.66809 11.24267 22999 ft 424 kts 104°
2026-04-29 15:18 36.65919 11.29036 23612 ft 428 kts 103°
2026-04-29 15:18 36.65246 11.32665 24059 ft 431 kts 103°
2026-04-29 15:18 36.64559 11.36367 24497 ft 434 kts 103°
2026-04-29 15:18 36.63881 11.40001 24879 ft 438 kts 104°
2026-04-29 15:19 36.63183 11.43715 25253 ft 442 kts 104°
2026-04-29 15:19 36.62476 11.47458 25618 ft 446 kts 104°
2026-04-29 15:19 36.61547 11.51152 25973 ft 448 kts 114°
2026-04-29 15:19 36.60256 11.54697 26322 ft 451 kts 117°
2026-04-29 15:20 36.58927 11.58256 26672 ft 454 kts 117°
2026-04-29 15:20 36.57593 11.61842 26995 ft 458 kts 117°
2026-04-29 15:20 36.56270 11.65412 27331 ft 461 kts 117°
2026-04-29 15:20 36.54921 11.69049 27654 ft 465 kts 117°
2026-04-29 15:21 36.53551 11.72726 27976 ft 469 kts 117°
2026-04-29 15:21 36.52168 11.76423 28300 ft 473 kts 117°
2026-04-29 15:21 36.50772 11.80142 28623 ft 476 kts 117°
2026-04-29 15:21 36.49379 11.83842 28923 ft 479 kts 118°
2026-04-29 15:22 36.47933 11.87604 29215 ft 483 kts 118°
2026-04-29 15:22 36.46459 11.91374 29486 ft 486 kts 119°
2026-04-29 15:22 36.44967 11.95168 29775 ft 489 kts 119°
2026-04-29 15:22 36.43468 11.98972 30063 ft 492 kts 119°
2026-04-29 15:23 36.41955 12.02816 30320 ft 495 kts 119°
2026-04-29 15:23 36.40444 12.06666 30581 ft 498 kts 119°
2026-04-29 15:23 36.38927 12.10542 30870 ft 500 kts 119°
2026-04-29 15:23 36.37422 12.14389 31152 ft 502 kts 119°
2026-04-29 15:24 36.35887 12.18308 31435 ft 504 kts 119°
2026-04-29 15:24 36.34351 12.22213 31806 ft 503 kts 119°
2026-04-29 15:24 36.32817 12.26103 32195 ft 501 kts 119°
2026-04-29 15:24 36.31282 12.29991 32558 ft 500 kts 120°
2026-04-29 15:25 36.29755 12.33857 32916 ft 499 kts 120°
2026-04-29 15:25 36.28228 12.37714 33269 ft 499 kts 120°
2026-04-29 15:25 36.27212 12.40275 33516 ft 498 kts 120°
2026-04-29 15:25 36.25686 12.44121 33870 ft 497 kts 120°
2026-04-29 15:26 36.23665 12.49217 34330 ft 496 kts 120°
2026-04-29 15:26 36.22638 12.51812 34553 ft 495 kts 120°
2026-04-29 15:26 36.21137 12.55595 34865 ft 494 kts 120°
2026-04-29 15:26 36.19619 12.59409 35165 ft 493 kts 120°
2026-04-29 15:27 36.18095 12.63225 35465 ft 493 kts 120°
2026-04-29 15:27 36.16577 12.67026 35742 ft 492 kts 120°
2026-04-29 15:27 36.15055 12.70824 35940 ft 493 kts 120°
2026-04-29 15:28 36.12006 12.78422 35985 ft 492 kts 120°
2026-04-29 15:28 36.08955 12.86025 35994 ft 492 kts 120°
2026-04-29 15:29 36.05919 12.93568 35986 ft 488 kts 120°
2026-04-29 15:30 35.99887 13.08529 35995 ft 488 kts 121°
2026-04-29 15:30 35.96842 13.16036 36001 ft 490 kts 121°
2026-04-29 15:31 35.93777 13.23587 35994 ft 491 kts 121°
2026-04-29 15:31 35.90712 13.31112 35994 ft 491 kts 121°
2026-04-29 15:32 35.87636 13.38642 35989 ft 491 kts 121°
2026-04-29 15:32 35.84576 13.46122 35993 ft 492 kts 121°
2026-04-29 15:33 35.81477 13.53666 35983 ft 491 kts 122°
2026-04-29 15:33 35.78131 13.60935 35987 ft 489 kts 126°
2026-04-29 15:34 35.74486 13.68013 35992 ft 489 kts 128°
2026-04-29 15:34 35.70821 13.75099 36000 ft 489 kts 127°
2026-04-29 15:35 35.67249 13.82204 35995 ft 490 kts 126°
2026-04-29 15:35 35.63695 13.89373 35998 ft 490 kts 126°
2026-04-29 15:36 35.60132 13.96513 36005 ft 489 kts 126°
2026-04-29 15:36 35.56549 14.03639 36009 ft 490 kts 127°
2026-04-29 15:37 35.52981 14.10720 36006 ft 490 kts 127°
2026-04-29 15:37 35.49377 14.17832 36006 ft 490 kts 127°
2026-04-29 15:38 35.45770 14.24941 36011 ft 490 kts 127°
2026-04-29 15:38 35.42165 14.32061 36010 ft 490 kts 127°
2026-04-29 15:39 35.38583 14.39125 36012 ft 490 kts 127°
2026-04-29 15:39 35.34973 14.46217 36012 ft 490 kts 127°
2026-04-29 15:40 35.31349 14.53313 36011 ft 491 kts 127°
2026-04-29 15:40 35.27731 14.60397 36009 ft 491 kts 127°
2026-04-29 15:41 35.24104 14.67492 36009 ft 491 kts 127°
2026-04-29 15:41 35.20472 14.74556 36007 ft 491 kts 127°
2026-04-29 15:42 35.16855 14.81594 36006 ft 491 kts 127°
2026-04-29 15:42 35.13209 14.88668 36013 ft 491 kts 127°
2026-04-29 15:43 35.09554 14.95708 36013 ft 491 kts 127°
2026-04-29 15:43 35.05842 15.02717 36011 ft 491 kts 127°
2026-04-29 15:44 35.02107 15.09713 36011 ft 491 kts 127°
2026-04-29 15:44 34.98386 15.16702 36007 ft 491 kts 127°
2026-04-29 15:45 34.94668 15.23698 36010 ft 491 kts 127°
2026-04-29 15:45 34.90939 15.30695 36009 ft 492 kts 127°
2026-04-29 15:46 34.87224 15.37639 36014 ft 492 kts 127°
2026-04-29 15:46 34.83483 15.44610 36017 ft 492 kts 127°
2026-04-29 15:47 34.79735 15.51601 36021 ft 493 kts 127°
2026-04-29 15:47 34.75979 15.58586 36027 ft 493 kts 127°
2026-04-29 15:48 34.72221 15.65560 36033 ft 492 kts 127°
2026-04-29 15:48 34.68469 15.72515 36029 ft 492 kts 127°
2026-04-29 15:49 34.64706 15.79477 36025 ft 492 kts 127°
2026-04-29 15:49 34.60954 15.86409 36023 ft 491 kts 127°
2026-04-29 15:50 34.57196 15.93347 36025 ft 491 kts 127°
2026-04-29 15:50 34.53447 16.00229 36025 ft 491 kts 127°
2026-04-29 15:51 34.49634 16.07203 36018 ft 501 kts 127°
2026-04-29 15:51 34.45732 16.14336 36017 ft 512 kts 127°
2026-04-29 15:52 34.41798 16.21520 36017 ft 516 kts 127°
2026-04-29 15:52 34.37830 16.28764 36008 ft 516 kts 127°
2026-04-29 15:53 34.33847 16.36016 36008 ft 516 kts 127°
2026-04-29 15:53 34.29950 16.43319 36011 ft 517 kts 125°
2026-04-29 15:54 34.26211 16.50782 36011 ft 518 kts 124°
2026-04-29 15:54 34.24366 16.54509 36176 ft 509 kts 121°
2026-04-29 15:54 34.22616 16.58039 37417 ft 476 kts 126°
2026-04-29 15:54 34.20938 16.61420 38100 ft 467 kts 125°
2026-04-29 15:55 34.19232 16.64804 37482 ft 483 kts 125°
2026-04-29 15:55 34.17421 16.68322 36228 ft 497 kts 126°
2026-04-29 15:55 34.15602 16.71801 35276 ft 494 kts 126°
2026-04-29 15:56 34.11968 16.78750 35495 ft 489 kts 125°
2026-04-29 15:56 34.10154 16.82253 35712 ft 491 kts 125°
2026-04-29 15:56 34.08348 16.85761 35897 ft 494 kts 125°
2026-04-29 15:56 34.06535 16.89289 36095 ft 495 kts 125°
2026-04-29 15:57 34.04726 16.92813 36331 ft 496 kts 125°
2026-04-29 15:57 34.02901 16.96365 36539 ft 496 kts 125°
2026-04-29 15:57 34.01081 16.99896 36792 ft 496 kts 126°
2026-04-29 15:57 33.99258 17.03420 36982 ft 495 kts 126°
2026-04-29 15:58 33.97436 17.06934 37011 ft 493 kts 126°
2026-04-29 15:58 33.93821 17.13916 37008 ft 490 kts 126°
2026-04-29 15:59 33.90203 17.20884 37008 ft 490 kts 126°
2026-04-29 15:59 33.86588 17.27826 37008 ft 490 kts 126°
2026-04-29 16:00 33.82963 17.34782 37006 ft 492 kts 126°
2026-04-29 16:00 33.79302 17.41785 37008 ft 503 kts 126°
2026-04-29 16:01 33.75537 17.48982 37007 ft 510 kts 126°
2026-04-29 16:01 33.71746 17.56229 37007 ft 512 kts 126°
2026-04-29 16:02 33.67940 17.63458 37008 ft 512 kts 126°
2026-04-29 16:02 33.64130 17.70682 37007 ft 512 kts 126°
2026-04-29 16:03 33.60341 17.77863 37006 ft 512 kts 126°
2026-04-29 16:03 33.56536 17.85078 37006 ft 512 kts 126°
2026-04-29 16:04 33.52708 17.92291 37011 ft 512 kts 126°
2026-04-29 16:04 33.48875 17.99497 37018 ft 512 kts 126°
2026-04-29 16:05 33.45043 18.06706 37015 ft 512 kts 126°
2026-04-29 16:05 33.41199 18.13901 37014 ft 513 kts 126°
2026-04-29 16:06 33.38007 18.19885 37016 ft 513 kts 126°
2026-04-29 16:06 33.34171 18.27081 37018 ft 513 kts 126°
2026-04-29 16:07 33.30313 18.34286 37013 ft 513 kts 126°
2026-04-29 16:07 33.26450 18.41468 37014 ft 514 kts 126°
2026-04-29 16:08 33.22586 18.48663 37016 ft 514 kts 126°
2026-04-29 16:08 33.18730 18.55812 37020 ft 515 kts 126°
2026-04-29 16:09 33.14840 18.63000 37023 ft 516 kts 126°
2026-04-29 16:09 33.10946 18.70208 37026 ft 516 kts 126°
2026-04-29 16:10 33.07055 18.77396 37024 ft 515 kts 126°
2026-04-29 16:10 33.03152 18.84592 37021 ft 515 kts 127°
2026-04-29 16:11 32.99267 18.91722 37016 ft 516 kts 126°
2026-04-29 16:11 32.95351 18.98884 37017 ft 516 kts 127°
2026-04-29 16:12 32.91418 19.06060 37020 ft 516 kts 127°
2026-04-29 16:12 32.86814 19.12416 37017 ft 500 kts 149°
2026-04-29 16:13 32.81204 19.17273 37015 ft 499 kts 150°
2026-04-29 16:13 32.75566 19.22100 37014 ft 499 kts 150°
2026-04-29 16:14 32.69962 19.26894 37012 ft 500 kts 150°
2026-04-29 16:14 32.64309 19.31725 37012 ft 501 kts 150°
2026-04-29 16:15 32.58640 19.36563 37011 ft 501 kts 150°
2026-04-29 16:15 32.52978 19.41389 37006 ft 501 kts 150°
2026-04-29 16:16 32.47299 19.46221 37010 ft 502 kts 150°
2026-04-29 16:16 32.41667 19.51018 37010 ft 502 kts 150°
2026-04-29 16:17 32.35975 19.55855 37013 ft 502 kts 150°
2026-04-29 16:17 32.30288 19.60676 37015 ft 502 kts 150°
2026-04-29 16:18 32.24603 19.65480 37016 ft 502 kts 150°
2026-04-29 16:18 32.18945 19.70264 37017 ft 503 kts 150°
2026-04-29 16:19 32.13248 19.75068 37016 ft 503 kts 150°
2026-04-29 16:19 32.07531 19.79878 37019 ft 504 kts 150°
2026-04-29 16:20 32.01815 19.84684 37021 ft 504 kts 150°
2026-04-29 16:20 31.96108 19.89480 37025 ft 504 kts 150°
2026-04-29 16:21 31.90387 19.94270 37030 ft 504 kts 150°
2026-04-29 16:21 31.84700 19.99027 37032 ft 504 kts 150°
2026-04-29 16:22 31.78971 20.03819 37036 ft 504 kts 150°
2026-04-29 16:22 31.73253 20.08586 37030 ft 504 kts 150°
2026-04-29 16:23 31.67545 20.13345 37011 ft 493 kts 150°
2026-04-29 16:23 31.62061 20.17927 37029 ft 484 kts 151°
2026-04-29 16:24 31.56582 20.22465 37040 ft 481 kts 151°
2026-04-29 16:24 31.51106 20.26997 37038 ft 481 kts 151°
2026-04-29 16:25 31.45630 20.31527 37025 ft 480 kts 151°
2026-04-29 16:25 31.40201 20.36015 37024 ft 480 kts 151°
2026-04-29 16:26 31.34738 20.40522 37024 ft 480 kts 151°
2026-04-29 16:26 31.29276 20.45024 37026 ft 480 kts 151°
2026-04-29 16:27 31.23817 20.49520 37027 ft 479 kts 151°
2026-04-29 16:27 31.18361 20.54009 37025 ft 479 kts 151°
2026-04-29 16:28 31.12936 20.58476 37022 ft 479 kts 151°
2026-04-29 16:28 31.07479 20.62946 37016 ft 478 kts 151°
2026-04-29 16:29 31.02055 20.67375 37014 ft 478 kts 151°
2026-04-29 16:29 30.96601 20.71836 37016 ft 479 kts 151°
2026-04-29 16:30 30.91146 20.76295 37014 ft 478 kts 151°
2026-04-29 16:30 30.85700 20.80734 37015 ft 478 kts 151°
2026-04-29 16:31 30.80236 20.85186 37018 ft 478 kts 151°
2026-04-29 16:31 30.74778 20.89622 37023 ft 478 kts 151°
2026-04-29 16:32 30.69307 20.94055 36959 ft 479 kts 151°
2026-04-29 16:32 30.66679 20.96478 36077 ft 490 kts 139°
2026-04-29 16:32 30.64602 20.99670 34761 ft 502 kts 120°
2026-04-29 16:32 30.63359 21.03478 33440 ft 509 kts 101°
2026-04-29 16:33 30.63616 21.11375 31737 ft 483 kts 69°
2026-04-29 16:33 30.64926 21.14888 30853 ft 467 kts 53°
2026-04-29 16:33 30.66897 21.17801 29963 ft 448 kts 37°
2026-04-29 16:34 30.69321 21.19946 29203 ft 426 kts 21°
2026-04-29 16:34 30.71909 21.21289 28933 ft 394 kts
2026-04-29 16:34 30.74492 21.21980 28613 ft 366 kts 358°
2026-04-29 16:34 30.76957 21.22054 28320 ft 346 kts 347°
2026-04-29 16:35 30.79281 21.21593 28031 ft 331 kts 336°
2026-04-29 16:35 30.81415 21.20692 27755 ft 322 kts 327°
2026-04-29 16:35 30.83311 21.19427 27491 ft 314 kts 319°
2026-04-29 16:35 30.85096 21.17974 27223 ft 313 kts 319°
2026-04-29 16:36 30.86882 21.16532 26939 ft 312 kts 319°
2026-04-29 16:36 30.88664 21.15096 26666 ft 310 kts 319°
2026-04-29 16:36 30.90439 21.13671 26394 ft 308 kts 319°
2026-04-29 16:36 30.92203 21.12257 26118 ft 307 kts 319°
2026-04-29 16:37 30.93957 21.10844 25834 ft 305 kts 319°
2026-04-29 16:37 30.95694 21.09442 25560 ft 304 kts 319°
2026-04-29 16:37 30.97409 21.08057 25290 ft 302 kts 319°
2026-04-29 16:37 30.98575 21.07114 25096 ft 301 kts 319°
2026-04-29 16:38 31.00852 21.05273 24707 ft 300 kts 319°
2026-04-29 16:38 31.02563 21.03891 24411 ft 298 kts 319°
2026-04-29 16:38 31.04261 21.02521 24121 ft 296 kts 319°
2026-04-29 16:38 31.05947 21.01158 23829 ft 294 kts 319°
2026-04-29 16:39 31.07627 20.99799 23539 ft 293 kts 319°
2026-04-29 16:39 31.09302 20.98442 23245 ft 292 kts 319°
2026-04-29 16:39 31.10970 20.97090 22971 ft 291 kts 320°
2026-04-29 16:39 31.12630 20.95742 22691 ft 290 kts 319°
2026-04-29 16:40 31.14286 20.94398 22410 ft 289 kts 320°
2026-04-29 16:40 31.15927 20.93068 22136 ft 288 kts 320°
2026-04-29 16:40 31.17576 20.91729 21875 ft 287 kts 320°
2026-04-29 16:40 31.19213 20.90401 21604 ft 286 kts 320°
2026-04-29 16:41 31.20846 20.89076 21321 ft 285 kts 320°
2026-04-29 16:41 31.22473 20.87755 21050 ft 284 kts 320°
2026-04-29 16:41 31.24093 20.86438 20781 ft 283 kts 320°
2026-04-29 16:41 31.25707 20.85123 20512 ft 282 kts 320°
2026-04-29 16:42 31.27315 20.83814 20248 ft 281 kts 320°
2026-04-29 16:42 31.28920 20.82510 19981 ft 281 kts 320°
2026-04-29 16:42 31.30503 20.81225 19719 ft 279 kts 320°
2026-04-29 16:42 31.32092 20.79930 19458 ft 278 kts 320°
2026-04-29 16:43 31.33681 20.78635 19201 ft 277 kts 320°
2026-04-29 16:43 31.35261 20.77348 18938 ft 276 kts 320°
2026-04-29 16:43 31.36838 20.76066 18678 ft 275 kts 320°
2026-04-29 16:43 31.38410 20.74785 18422 ft 275 kts 321°
2026-04-29 16:44 31.39979 20.73510 18167 ft 273 kts 321°
2026-04-29 16:44 31.41534 20.72236 17909 ft 273 kts 321°
2026-04-29 16:44 31.43088 20.70956 17652 ft 273 kts 321°
2026-04-29 16:44 31.44647 20.69677 17401 ft 273 kts 322°
2026-04-29 16:45 31.46317 20.68483 17129 ft 292 kts 325°
2026-04-29 16:45 31.48104 20.67299 16877 ft 297 kts 327°
2026-04-29 16:45 31.49913 20.66138 16638 ft 296 kts 327°
2026-04-29 16:45 31.51726 20.64985 16395 ft 296 kts 327°
2026-04-29 16:46 31.53532 20.63837 16144 ft 295 kts 327°
2026-04-29 16:46 31.55336 20.62681 15887 ft 294 kts 327°
2026-04-29 16:46 31.57124 20.61529 15643 ft 293 kts 327°
2026-04-29 16:46 31.58912 20.60373 15391 ft 292 kts 327°
2026-04-29 16:47 31.60696 20.59217 15139 ft 292 kts 327°
2026-04-29 16:47 31.62470 20.58064 14888 ft 291 kts 327°
2026-04-29 16:47 31.64222 20.56925 14640 ft 290 kts 327°
2026-04-29 16:47 31.65983 20.55773 14385 ft 289 kts 327°
2026-04-29 16:48 31.67751 20.54622 14130 ft 289 kts 327°
2026-04-29 16:48 31.68914 20.53872 13976 ft 287 kts 327°
2026-04-29 16:48 31.70649 20.52745 13672 ft 283 kts 327°
2026-04-29 16:48 31.72376 20.51621 13330 ft 283 kts 327°
2026-04-29 16:49 31.74097 20.50498 12987 ft 283 kts 327°
2026-04-29 16:49 31.75818 20.49370 12639 ft 283 kts 327°
2026-04-29 16:49 31.77529 20.48245 12288 ft 281 kts 327°
2026-04-29 16:49 31.79236 20.47120 11933 ft 281 kts 327°
2026-04-29 16:50 31.80936 20.46006 11578 ft 278 kts 327°
2026-04-29 16:50 31.82630 20.44905 11222 ft 277 kts 328°
2026-04-29 16:50 31.84322 20.43805 10853 ft 278 kts 328°
2026-04-29 16:50 31.86004 20.42708 10494 ft 276 kts 328°
2026-04-29 16:51 31.87665 20.41627 10124 ft 276 kts 328°
2026-04-29 16:51 31.89348 20.40528 9755 ft 276 kts 329°
2026-04-29 16:51 31.91029 20.39428 9387 ft 276 kts 329°
2026-04-29 16:51 31.92705 20.38326 8996 ft 276 kts 330°
2026-04-29 16:52 31.94359 20.37241 8608 ft 267 kts 330°
2026-04-29 16:52 31.95981 20.36178 8226 ft 264 kts 330°
2026-04-29 16:52 31.97575 20.35134 7849 ft 262 kts 330°
2026-04-29 16:52 31.99173 20.34087 7457 ft 262 kts 330°
2026-04-29 16:53 32.00744 20.33058 7056 ft 255 kts 330°
2026-04-29 16:53 32.02270 20.32055 6675 ft 247 kts 330°
2026-04-29 16:53 32.03756 20.31077 6296 ft 241 kts 330°
2026-04-29 16:53 32.05205 20.30125 5916 ft 236 kts 330°
2026-04-29 16:54 32.06622 20.29193 5551 ft 231 kts 330°
2026-04-29 16:54 32.08004 20.28280 5192 ft 225 kts 330°
2026-04-29 16:54 32.09345 20.27398 4832 ft 222 kts 330°
2026-04-29 16:54 32.10683 20.26518 4500 ft 217 kts 330°
2026-04-29 16:55 32.11974 20.25670 4188 ft 207 kts 331°
2026-04-29 16:55 32.13209 20.24851 3846 ft 200 kts 331°
2026-04-29 16:55 32.14386 20.24048 3519 ft 191 kts 331°
2026-04-29 16:55 32.15512 20.23273 3196 ft 183 kts 331°
2026-04-29 16:56 32.16579 20.22534 2898 ft 177 kts 331°
2026-04-29 16:56 32.17571 20.21691 2626 ft 172 kts 307°
2026-04-29 16:56 32.17855 20.20409 2573 ft 165 kts 259°
2026-04-29 16:56 32.17263 20.19301 2570 ft 162 kts 210°
2026-04-29 16:57 32.16209 20.19045 2577 ft 154 kts 165°
2026-04-29 16:57 32.15341 20.19692 2577 ft 148 kts 122°
2026-04-29 16:57 32.15064 20.20824 2575 ft 145 kts 90°
2026-04-29 16:57 32.14947 20.22010 2578 ft 145 kts 99°
2026-04-29 16:58 32.14713 20.23157 2353 ft 145 kts 112°
2026-04-29 16:58 32.14121 20.24125 2040 ft 148 kts 135°
2026-04-29 16:58 32.13221 20.24813 1449 ft 167 kts 150°
2026-04-29 16:58 32.12144 20.25486 912 ft 174 kts 146°
2026-04-29 16:59 32.11082 20.26201 522 ft 171 kts 150°
2026-04-29 16:59 32.10099 20.26872 470 ft 158 kts 147°
2026-04-29 16:59 32.09034 20.27506 751 ft 193 kts 154°
2026-04-29 16:59 32.08014 20.28549 1366 ft 201 kts 109°
2026-04-29 17:00 32.08055 20.30158 2080 ft 204 kts 60°
2026-04-29 17:00 32.09136 20.31182 2696 ft 207 kts 13°
2026-04-29 17:00 32.10610 20.31190 2868 ft 216 kts 346°
2026-04-29 17:00 32.12007 20.30450 3038 ft 222 kts 336°
2026-04-29 17:01 32.13503 20.30126 3074 ft 220 kts 10°
2026-04-29 17:01 32.14991 20.30468 3262 ft 219 kts
2026-04-29 17:01 32.16518 20.30112 3293 ft 227 kts 340°
2026-04-29 17:01 32.17906 20.29291 2972 ft 225 kts 332°
2026-04-29 17:02 32.19257 20.28378 2670 ft 224 kts 332°
2026-04-29 17:02 32.20611 20.27477 2389 ft 222 kts 332°
2026-04-29 17:02 32.21949 20.26594 2182 ft 217 kts 333°
2026-04-29 17:02 32.23353 20.26117 2173 ft 211 kts
2026-04-29 17:03 32.24810 20.26331 2175 ft 212 kts
2026-04-29 17:03 32.26163 20.25805 2136 ft 205 kts 319°
2026-04-29 17:03 32.26843 20.24379 2040 ft 197 kts 285°
2026-04-29 17:03 32.27009 20.22820 1911 ft 187 kts 278°
2026-04-29 17:04 32.27092 20.21327 1771 ft 179 kts 265°
2026-04-29 17:04 32.26670 20.19983 1611 ft 174 kts 234°
2026-04-29 17:04 32.25722 20.19129 1330 ft 174 kts 199°
2026-04-29 17:04 32.24554 20.19021 1112 ft 170 kts 165°
2026-04-29 17:05 32.23457 20.19544 1081 ft 171 kts 152°
2026-04-29 17:05 32.22370 20.20134 1078 ft 172 kts 153°
2026-04-29 17:05 32.21277 20.20711 1081 ft 172 kts 155°
2026-04-29 17:05 32.20149 20.21203 1121 ft 173 kts 159°
2026-04-29 17:06 32.19004 20.21646 1131 ft 173 kts 159°
2026-04-29 17:06 32.17875 20.22091 1108 ft 173 kts 156°
2026-04-29 17:06 32.16752 20.22647 958 ft 172 kts 156°
2026-04-29 17:06 32.15653 20.23163 820 ft 169 kts 153°
2026-04-29 17:07 32.14615 20.23827 803 ft 170 kts 148°
2026-04-29 17:07 32.13596 20.24529 700 ft 169 kts 147°
2026-04-29 17:07 32.12582 20.25225 627 ft 168 kts 148°
2026-04-29 17:07 32.11551 20.25891 486 ft 168 kts 150°
2026-04-29 17:08 32.10535 20.26562 404 ft 163 kts 148°
2026-04-29 17:08 32.09783 20.27075 413 ft 64 kts 150°
2026-04-29 17:08 32.09523 20.27251 412 ft 37 kts 151°
2026-04-29 17:08 32.09293 20.27401 416 ft 38 kts 152°
2026-04-29 17:09 32.09070 20.27454 424 ft 28 kts 191°
2026-04-29 17:09 32.08939 20.27389 429 ft 14 kts 230°
2026-04-29 17:09 32.08892 20.27302 429 ft 11 kts 234°
2026-04-29 17:09 32.08843 20.27203 428 ft 21 kts 241°
2026-04-29 17:10 32.08792 20.27045 427 ft 19 kts 298°
2026-04-29 17:10 32.08895 20.26973 425 ft 11 kts 332°
2026-04-29 17:10 32.08898 20.26971 425 ft 0 kts 330°
2026-04-29 17:10 32.08905 20.26966 425 ft 6 kts 328°
2026-04-29 17:11 32.08953 20.26932 424 ft 9 kts 330°
2026-04-29 17:11 32.09072 20.26853 422 ft 26 kts 331°
2026-04-29 17:11 32.09241 20.26738 419 ft 30 kts 330°
2026-04-29 17:11 32.09428 20.26612 415 ft 29 kts 330°
2026-04-29 17:12 32.09549 20.26508 412 ft 10 kts 266°
2026-04-29 17:12 32.09497 20.26472 413 ft 8 kts 216°
2026-04-29 17:12 32.09492 20.26465 413 ft 0 kts 226°
2026-04-29 17:13 32.09491 20.26465 413 ft 1 kts 226°
2026-04-29 17:13 32.09462 20.26428 413 ft 0 kts 232°
2026-04-29 17:14 32.09454 20.26407 413 ft 9 kts 232°
2026-04-29 17:14 32.09416 20.26355 413 ft 8 kts 228°
2026-04-29 17:14 32.09349 20.26326 409 ft 19 kts 180°
2026-04-29 17:14 32.09256 20.26293 415 ft 5 kts 269°
2026-04-29 17:15 32.09274 20.26271 415 ft 4 kts 322°
2026-04-29 17:15 32.09300 20.26256 414 ft 4 kts 342°
2026-04-29 17:15 32.09313 20.26254 414 ft 0 kts 355°